Regional Weather Roundup
Issued by NWS

Home | Current Version | Previous Version | Text Only | Print | Product List | Glossary On
Versions: 1 2 3 4 5 6 7 8 9 10 11 12 13 14 15 16 17 18 19 20 21 22 23 24 25 26 27
000
ASPQ40 PGUM 210912
RWRPQ
WEATHER ROUNDUP FOR THE MARIANAS AND MICRONESIA
NATIONAL WEATHER SERVICE TIYAN GU
700 PM CHST SAT JAN 21 2017

GUZ001>004-211000-
MARIANA ISLANDS-

CITY           SKY/WX    TMP DP  RH WIND       PRES   REMARKS
GUAM AIRPORT   LGT RAIN  81  75  83 NE16      29.96R
ANDERSEN AFB   PTCLDY    79  73  83 NE18G25   29.97R
ROTA AIRPORT   NOT AVBL
TINIAN AP      PTCLDY    79  72  78 NE12      29.98R
SAIPAN AP      MOCLDY    77  72  83 N9        29.99R

$$

PMZ161-211000-
REPUBLIC OF PALAU-

CITY           SKY/WX    TMP DP  RH WIND       PRES   REMARKS
KOROR AP       MOCLDY    81  77  89 NE12      29.84S
KOROR WSO      MOCLDY    82  75  78 E7        29.86R

$$

PMZ171>174-211000-
FEDERATED STATES OF MICRONESIA-

CITY           SKY/WX    TMP DP  RH WIND       PRES   REMARKS
YAP AIRPORT    CLOUDY    81  75  83 NE9       29.87R
CHUUK AP       MOCLDY    82  77  83 VRB6      29.84R HX  91
POHNPEI AP     MOCLDY    82  77  83 NE9       29.83  HX  91
POHNPEI WSO    CLOUDY    82  77  83 E7        29.87R HX  91
KOSRAE AP      NOT AVBL

$$

PMZ181-211000-
REPUBLIC OF THE MARSHALL ISLANDS-

CITY           SKY/WX    TMP DP  RH WIND       PRES   REMARKS
KWAJALEIN AP   MOCLDY    81  75  83 E25       29.87R
MAJURO AP      NOT AVBL
MAJURO WSO     MOCLDY    82  75  78 NE18      29.82R

$$





USA.gov is the U.S. government's official web portal to all federal, state and local government web resources and services.